This is the latest recevied weather packets stored in our database for station/object AD8BV. If no packets are shown the sender has not sent any weather packets the latest 10 day(s).
| Time | Temp. | Humidity | Pressure | Rain* | Wind** | Luminosity | Snow |
|---|---|---|---|---|---|---|---|
| 1778023189 | 10.56° C | 59% | 1009.7 hPa | 0 mm | - | 28 W/m² | - |
| 1778022886 | 10.56° C | 53% | 1010.1 hPa | 0 mm | - | 21 W/m² | - |
| 1778022584 | 10.56° C | 53% | 1009.7 hPa | 0 mm | - | 32 W/m² | - |
| 1778022281 | 10.56° C | 51% | 1009.8 hPa | 0 mm | - | 41 W/m² | - |
| 1778021978 | 10.56° C | 53% | 1009.8 hPa | 0 mm | - | 38 W/m² | - |
| 1778021675 | 10.56° C | 54% | 1009.9 hPa | 0 mm | - | 48 W/m² | - |
| 1778021371 | 11.11° C | 51% | 1009.9 hPa | 0 mm | - | 43 W/m² | - |
| 1778021068 | 11.11° C | 51% | 1009.7 hPa | 0 mm | - | 51 W/m² | - |
| 1778020765 | 11.11° C | 51% | 1009.8 hPa | 0 mm | - | 46 W/m² | - |
| 1778020462 | 11.11° C | 50% | 1009.6 hPa | 0 mm | - | 42 W/m² | - |
| 1778020158 | 11.11° C | 51% | 1009.8 hPa | 0 mm | - | 64 W/m² | - |
| 1778019854 | 11.11° C | 48% | 1009.8 hPa | 0 mm | - | 65 W/m² | - |
| 1778019550 | 11.11° C | 51% | 1009.7 hPa | 0 mm | - | 61 W/m² | - |
| 1778019248 | 11.67° C | 47% | 1009.7 hPa | 0 mm | - | 66 W/m² | - |
| 1778018945 | 11.67° C | 48% | 1009.8 hPa | 0 mm | - | 74 W/m² | - |
| 1778018642 | 11.67° C | 49% | 1009.8 hPa | 0 mm | - | 82 W/m² | - |
| 1778018340 | 11.67° C | 48% | 1009.7 hPa | 0 mm | - | 86 W/m² | - |
| 1778018037 | 11.67° C | 51% | 1009.6 hPa | 0 mm | - | 92 W/m² | - |
| 1778017735 | 11.67° C | 49% | 1009.6 hPa | 0 mm | - | 104 W/m² | - |
| 1778017432 | 11.67° C | 49% | 1009.6 hPa | 0 mm | - | 112 W/m² | - |
| 1778017130 | 11.67° C | 52% | 1009.2 hPa | 0 mm | - | 111 W/m² | - |
| 1778016827 | 12.22° C | 52% | 1009.8 hPa | 0 mm | - | 117 W/m² | - |
| 1778016523 | 12.22° C | 53% | 1009.3 hPa | 0 mm | - | 121 W/m² | - |
| 1778016220 | 12.22° C | 52% | 1009.3 hPa | 0 mm | - | 129 W/m² | - |
| 1778015916 | 12.22° C | 51% | 1009.7 hPa | 0 mm | - | 135 W/m² | - |
* Rain latest hour (hover to see other rain measurements)
** Current wind speed in m/s (hover to see current wind gust speed)